NOAA NWS Hourly Roundups by Site

Regional Weather Roundup for State College, PA

To Select Another Site Choose from List

Select Site:  

000
ASUS41 KCTP 282310
RWRCTP

REGIONAL WEATHER ROUNDUP
NATIONAL WEATHER SERVICE STATE COLLEGE PA
700 PM EDT SAT MAR 28 2020

Note: "fair" indicates few or no clouds below 12,000 feet with no
significant weather and/or obstructions to visibility.

* = STATION THAT DOES NOT REPORT PRECIPITATION /E.G. RAIN...SNOW...ETC/
    THUNDER OR FOG.

PAZ002>004-007>009-013>016-020>023-029>032-290000-
WESTERN PENNSYLVANIA

CITY           SKY/WX    TMP DP  RH WIND       PRES   REMARKS
ERIE           CLOUDY    53  48  83 NE7       29.79R HAZE
MEADVILLE      CLOUDY    60  58  92 N3        29.80R
FRANKLIN       CLOUDY    58  57  97 CALM      29.82R FOG
NEW CASTLE     LGT RAIN  61  61 100 SE7       29.78R FOG
BEAVER COUNTY  MOCLDY    66  65  96 SW8       29.80R FOG
BUTLER         MOCLDY    63  63 100 S10       29.81R
PITTSBURGH INT CLOUDY    66  63  90 S6        29.82R
PITTSBURGH     CLOUDY    63  63 100 S7        29.82F
INDIANA*       CLOUDY    57  57 100 E6        29.88F
LATROBE        LGT RAIN  63  63 100 E9        29.85S
WASHINGTON CO* MOCLDY    65  64  97 S6        29.86R
$$

PAZ004>006-010>012-017>019-024>028-033>037-041-042-045-046-049>053-290000-
CENTRAL PENNSYLVANIA

CITY           SKY/WX    TMP DP  RH WIND       PRES   REMARKS
BRADFORD       CLOUDY    47  45  93 SE6       29.86R FOG
ST MARYS       RAIN      46  46 100 SE7       29.90
DUBOIS         CLOUDY    50  48  93 SE12      29.84R
CLEARFIELD     LGT RAIN  48  45  89 CALM      29.90F FOG
JOHNSTOWN      LGT RAIN  53  51  93 S10       29.91R
SOMERSET       LGT RAIN  54  52  94 SE7       29.93F
ALTOONA        RAIN      50  47  89 MISG      29.96R FOG
STATE COLLEGE  LGT RAIN  48  48 100 NE3       29.95R
REEDSVILLE     RAIN      48  48 100 CALM      29.98
WELLSBORO      FOG       43  41  93 MISG      29.91R VSB 1/2
WILLIAMSPORT   CLOUDY    47  43  86 E16       29.95R
SELINSGROVE    RAIN      47  45  93 SE6       29.99R FOG
FT INDIANTOWN  RAIN      46  45  93 E8        30.00R FOG
CAPITAL CITY   RAIN      50  46  86 E6        29.99R FOG
HARRISBURG     LGT RAIN  49  46  90 SE8       29.99R
YORK           CLOUDY    49  46  90 E7        29.97R
$$

PAZ038>040-043-044-047-048-054-055-060>062-067>071-290000-
EASTERN PENNSYLVANIA

CITY           SKY/WX    TMP DP  RH WIND       PRES   REMARKS
TOWANDA        CLOUDY    45  45 100 CALM      29.99R
SCRANTON       CLOUDY    46  40  79 E3        30.00R
MOUNT POCONO   FOG       38  38 100 E10       29.99R VSB<1/4
HAZLETON       LGT RAIN  43  41  93 SE8       29.99R
LEHIGHTON      RAIN      45  45 100 CALM      30.03R
ALLENTOWN      LGT RAIN  47  43  86 E8        30.03R FOG
QN CITY/ALNTWN RAIN      46  45  93 NE6       30.03R
QUAKERTOWN*    CLOUDY    46  46 100 NE5       30.04R
PERKASIE*      LGT RAIN  45  45 100 NE7       30.04R
DOYLESTOWN     LGT RAIN  47  44  90 CALM      30.02R
READING        RAIN      48  46  93 VRB6      29.99R FOG
LANCASTER      LGT RAIN  49  46  90 NE7       29.99R FOG
COATESVILLE    LGT RAIN  46  46 100 E14       29.97F VSB 1/4
WEST CHESTER   LGT RAIN  46  45  93 E7        29.99F
POTTSTOWN      RAIN      44  44 100 NE6       30.00F FOG
BLUE BELL      RAIN      47  46  97 E6        30.02R FOG
NORTH PHILA    NOT AVBL
PHILADELPHIA   CLOUDY    49  46  90 NE9       30.02R FOG
$$


 

View Past Reports for State College, PA.

Products Courtesy of NOAA-NWS
NWS Information Parsing Script by Ken True at Saratoga Weather - Script by SE Lincoln Weather.